W4NRG-1 Weather Reports


time (UTC)temp
C
wind
direction
speed
KPH
gust
KPH
rain 1hr
cm
rain 24hr
cm
rain mn
cm
humidity
%
barometer
mb
20260506002137 24 97 1.6 12.9 0.00 0.00 0.00 42 1012.3
20260506001633 24 347 9.7 14.5 0.00 0.00 0.00 41 1012.4
20260506001131 24 81 0.0 3.2 0.00 0.00 0.00 42 1012.3
20260506000628 25 306 4.8 4.8 0.00 0.00 0.00 41 1012.3
20260506000125 25 43 8.0 14.5 0.00 0.00 0.00 40 1012.1
20260505235623 25 83 4.8 17.7 0.00 0.00 0.00 40 1012.1
20260505235120 25 333 6.4 22.5 0.00 0.00 0.00 40 1012.1
20260505234617 25 346 4.8 20.9 0.00 0.00 0.00 40 1012.1
20260505234114 25 313 6.4 9.7 0.00 0.00 0.00 40 1011.9
20260505233611 25 108 9.7 14.5 0.00 0.00 0.00 39 1012.0
20260505233108 26 328 4.8 9.7 0.00 0.00 0.00 39 1012.1
20260505232606 26 97 3.2 22.5 0.00 0.00 0.00 39 1011.7
20260505232104 26 67 3.2 6.4 0.00 0.00 0.00 38 1011.7
20260505231600 26 101 3.2 4.8 0.00 0.00 0.00 38 1011.8
20260505231059 26 18 4.8 9.7 0.00 0.00 0.00 38 1011.6
20260505230556 26 335 8.0 14.5 0.00 0.00 0.00 37 1011.8
20260505230052 26 50 4.8 6.4 0.00 0.00 0.00 38 1011.8
20260505225549 26 106 3.2 11.3 0.00 0.00 0.00 37 1011.7
20260505225045 26 320 4.8 11.3 0.00 0.00 0.00 37 1011.5
20260505224542 26 308 0.0 4.8 0.00 0.00 0.00 37 1011.6
20260505224040 26 336 1.6 9.7 0.00 0.00 0.00 37 1011.6
20260505223537 26 352 11.3 14.5 0.00 0.00 0.00 36 1011.5
20260505223033 26 19 3.2 6.4 0.00 0.00 0.00 36 1011.7
20260505222529 27 49 3.2 4.8 0.00 0.00 0.00 35 1011.7
20260505222025 27 109 3.2 4.8 0.00 0.00 0.00 35 1011.7
20260505221523 27 67 6.4 9.7 0.00 0.00 0.00 34 1011.8
20260505221019 27 83 8.0 11.3 0.00 0.00 0.00 34 1011.6
20260505220516 27 56 3.2 4.8 0.00 0.00 0.00 34 1011.5
20260505220014 27 273 3.2 12.9 0.00 0.00 0.00 34 1011.5
20260505215512 27 313 8.0 12.9 0.00 0.00 0.00 34 1011.6
20260505215010 27 318 4.8 20.9 0.00 0.00 0.00 34 1011.7
20260505214508 27 169 4.8 12.9 0.00 0.00 0.00 34 1011.7
20260505214004 28 28 4.8 22.5 0.00 0.00 0.00 34 1011.5
20260505213502 28 305 4.8 12.9 0.00 0.00 0.00 33 1011.5
20260505212958 28 284 3.2 14.5 0.00 0.00 0.00 34 1011.6
20260505212455 28 75 8.0 24.1 0.00 0.00 0.00 32 1011.5
20260505211951 28 47 6.4 9.7 0.00 0.00 0.00 34 1011.7
20260505211449 28 293 14.5 17.7 0.00 0.00 0.00 32 1011.5
20260505210945 28 309 3.2 20.9 0.00 0.00 0.00 32 1011.3
20260505210442 28 323 4.8 14.5 0.00 0.00 0.00 32 1011.4
20260505205939 28 3 8.0 17.7 0.00 0.00 0.00 31 1011.6
20260505205438 28 104 1.6 25.7 0.00 0.00 0.00 31 1011.4
20260505204934 28 346 11.3 17.7 0.00 0.00 0.00 30 1011.5
20260505204432 28 328 6.4 24.1 0.00 0.00 0.00 31 1011.5
20260505203929 29 286 6.4 12.9 0.00 0.00 0.00 32 1011.6
20260505203425 29 296 4.8 14.5 0.00 0.00 0.00 31 1011.4
20260505202921 29 268 3.2 14.5 0.00 0.00 0.00 32 1011.7
20260505202418 29 137 8.0 12.9 0.00 0.00 0.00 32 1011.7
20260505201915 29 22 12.9 17.7 0.00 0.00 0.00 33 1011.5
20260505201412 29 356 8.0 17.7 0.00 0.00 0.00 33 1011.9
20260505200910 29 332 6.4 11.3 0.00 0.00 0.00 33 1011.7
20260505200407 28 331 6.4 12.9 0.00 0.00 0.00 33 1012.0
20260505195902 28 303 17.7 24.1 0.00 0.00 0.00 32 1012.1
20260505195400 29 310 8.0 17.7 0.00 0.00 0.00 32 1012.1
20260505194857 28 70 6.4 14.5 0.00 0.00 0.00 33 1012.2
20260505194355 28 215 4.8 22.5 0.00 0.00 0.00 33 1012.3
20260505193854 29 200 3.2 12.9 0.00 0.00 0.00 34 1012.1
20260505193353 29 299 4.8 6.4 0.00 0.00 0.00 35 1012.5
20260505192850 29 233 4.8 12.9 0.00 0.00 0.00 34 1012.5
20260505192348 29 124 9.7 14.5 0.00 0.00 0.00 33 1012.9
20260505191845 28 80 6.4 11.3 0.00 0.00 0.00 34 1012.7
20260505191344 28 337 6.4 14.5 0.00 0.00 0.00 34 1012.9
20260505190840 29 55 11.3 17.7 0.00 0.00 0.00 33 1012.9
20260505190336 28 27 6.4 11.3 0.00 0.00 0.00 35 1012.7
20260505185831 28 46 8.0 12.9 0.00 0.00 0.00 34 1012.7
20260505185328 28 82 6.4 11.3 0.00 0.00 0.00 34 1013.1
20260505184824 29 337 3.2 14.5 0.00 0.00 0.00 35 1013.0
20260505184321 28 298 6.4 11.3 0.00 0.00 0.00 37 1013.2
20260505183819 28 298 6.4 17.7 0.00 0.00 0.00 35 1013.2
20260505183315 28 273 3.2 12.9 0.00 0.00 0.00 35 1013.1
20260505182812 28 336 3.2 12.9 0.00 0.00 0.00 35 1013.1
20260505182309 28 347 8.0 14.5 0.00 0.00 0.00 36 1013.5
20260505181806 28 51 11.3 20.9 0.00 0.00 0.00 33 1013.2
20260505181303 28 3 6.4 16.1 0.00 0.00 0.00 37 1013.3
20260505180759 28 68 1.6 3.2 0.00 0.00 0.00 39 1013.2
20260505180256 27 70 12.9 17.7 0.00 0.00 0.00 37 1013.6
20260505175752 27 85 6.4 20.9 0.00 0.00 0.00 39 1013.6
20260505175249 27 311 8.0 17.7 0.00 0.00 0.00 39 1013.6
20260505174745 27 293 8.0 12.9 0.00 0.00 0.00 38 1013.7
20260505174243 27 314 11.3 20.9 0.00 0.00 0.00 37 1013.5
20260505173738 27 29 1.6 16.1 0.00 0.00 0.00 42 1013.6
20260505173235 27 197 3.2 6.4 0.00 0.00 0.00 41 1013.3
20260505172732 27 51 9.7 16.1 0.00 0.00 0.00 41 1013.7
20260505172229 27 323 4.8 17.7 0.00 0.00 0.00 41 1013.7
20260505171729 27 306 3.2 9.7 0.00 0.00 0.00 40 1013.9
20260505171227 26 291 3.2 4.8 0.00 0.00 0.00 44 1013.8
20260505170723 27 96 6.4 9.7 0.00 0.00 0.00 43 1013.7
20260505170220 27 71 3.2 11.3 0.00 0.00 0.00 43 1014.0
20260505165715 26 222 1.6 6.4 0.00 0.00 0.00 43 1014.3
20260505165212 26 54 1.6 17.7 0.00 0.00 0.00 43 1014.3
20260505164707 27 29 4.8 11.3 0.00 0.00 0.00 41 1014.2
20260505164204 26 72 3.2 9.7 0.00 0.00 0.00 41 1014.4
20260505163703 26 96 3.2 6.4 0.00 0.00 0.00 43 1014.5
20260505163201 26 69 0.0 6.4 0.00 0.00 0.00 43 1014.3
20260505162658 26 54 3.2 6.4 0.00 0.00 0.00 43 1014.3
20260505162155 26 55 3.2 11.3 0.00 0.00 0.00 44 1014.4
20260505161652 26 116 3.2 9.7 0.00 0.00 0.00 44 1014.6
20260505161149 26 13 6.4 12.9 0.00 0.00 0.00 44 1014.5
20260505160647 25 223 4.8 12.9 0.00 0.00 0.00 46 1014.7
20260505160144 25 38 8.0 14.5 0.00 0.00 0.00 45 1014.8
20260505153124 25 314 0.0 4.8 0.00 0.00 0.00 49 1014.7
20260505152620 24 71 4.8 11.3 0.00 0.00 0.00 49 1014.8
20260505152116 24 49 6.4 11.3 0.00 0.00 0.00 48 1014.8
20260505151611 24 75 3.2 11.3 0.00 0.00 0.00 52 1014.5
20260505151109 24 349 6.4 11.3 0.00 0.00 0.00 49 1014.8
20260505150605 23 355 3.2 6.4 0.00 0.00 0.00 52 1014.8
20260505140531 21 62 4.8 9.7 0.00 0.00 0.00 54 1014.9
20260505124944 18 87 3.2 14.5 0.00 0.00 0.00 62 1014.9
20260505124441 18 168 14.5 22.5 0.00 0.00 0.00 63 1014.9
20260505123937 18 73 4.8 11.3 0.00 0.00 0.00 62 1014.9
20260505123433 18 285 1.6 3.2 0.00 0.00 0.00 64 1014.9
20260505122929 18 321 1.6 12.9 0.00 0.00 0.00 64 1014.9
20260505122427 17 319 3.2 14.5 0.00 0.00 0.00 64 1014.8
20260505121924 18 354 6.4 9.7 0.00 0.00 0.00 62 1014.8
20260505121421 18 354 6.4 9.7 0.00 0.00 0.00 62 1014.7
20260505120916 18 88 4.8 4.8 0.00 0.00 0.00 64 1014.6
20260505120413 18 88 4.8 4.8 0.00 0.00 0.00 64 1014.9
20260505115912 -17 0.0 0.0 0.00 0.00 0.00 1014.7
20260505115409 17 45 3.2 3.2 0.00 0.00 0.00 67 1014.7
20260505114907 17 45 3.2 4.8 0.00 0.00 0.00 67 1014.8
20260505114403 17 182 4.8 6.4 0.00 0.00 0.00 67 1014.8
20260505113859 17 153 0.0 1.6 0.00 0.00 0.00 68 1014.5
20260505113356 17 250 1.6 1.6 0.00 0.00 0.00 68 1014.5
20260505112851 16 93 1.6 3.2 0.00 0.00 0.00 68 1014.3
20260505112350 16 124 0.0 1.6 0.00 0.00 0.00 69 1014.4
20260505111845 16 358 1.6 3.2 0.00 0.00 0.00 69 1014.5
20260505111340 16 291 1.6 4.8 0.00 0.00 0.00 69 1014.4
20260505110837 16 356 0.0 4.8 0.00 0.00 0.00 69 1014.3
20260505110334 16 51 0.0 3.2 0.00 0.00 0.00 69 1014.3
20260505101809 15 277 1.6 1.6 0.00 0.00 0.00 71 1014.3
20260505101304 15 227 1.6 1.6 0.00 0.00 0.00 72 1014.2
20260505100801 15 107 0.0 1.6 0.00 0.00 0.00 72 1014.0
20260505100257 15 21 0.0 0.0 0.00 0.00 0.00 72 1013.9
20260505095753 15 80 1.6 3.2 0.00 0.00 0.00 72 1014.0
20260505095251 15 52 0.0 1.6 0.00 0.00 0.00 72 1013.9
20260505094746 15 186 0.0 1.6 0.00 0.00 0.00 72 1013.9
20260505094243 15 353 1.6 1.6 0.00 0.00 0.00 71 1014.1
20260505093739 16 94 0.0 1.6 0.00 0.00 0.00 71 1013.9
20260505093237 16 270 0.0 3.2 0.00 0.00 0.00 71 1013.8
20260505092734 16 70 1.6 3.2 0.00 0.00 0.00 71 1013.8
20260505092232 16 343 0.0 1.6 0.00 0.00 0.00 70 1013.8
20260505091729 16 214 0.0 0.0 0.00 0.00 0.00 70 1014.1
20260505091228 16 165 0.0 1.6 0.00 0.00 0.00 70 1014.0
20260505090725 16 51 0.0 1.6 0.00 0.00 0.00 70 1013.8
20260505090223 16 130 1.6 1.6 0.00 0.00 0.00 69 1013.8
20260505085720 16 336 3.2 6.4 0.00 0.00 0.00 69 1013.7
20260505085218 16 280 0.0 1.6 0.00 0.00 0.00 68 1013.7
20260505084715 16 338 1.6 3.2 0.00 0.00 0.00 68 1013.9
20260505084214 16 313 1.6 3.2 0.00 0.00 0.00 67 1013.6
20260505083710 16 317 4.8 4.8 0.00 0.00 0.00 67 1013.5
20260505083207 16 19 1.6 1.6 0.00 0.00 0.00 67 1013.4
20260505082703 16 227 0.0 1.6 0.00 0.00 0.00 67 1013.5
20260505082201 16 183 1.6 1.6 0.00 0.00 0.00 68 1013.4
20260505081656 16 211 0.0 1.6 0.00 0.00 0.00 67 1013.5
20260505081154 16 321 1.6 6.4 0.00 0.00 0.00 67 1013.7
20260505080651 17 43 1.6 3.2 0.00 0.00 0.00 67 1013.7
20260505080146 17 116 4.8 4.8 0.00 0.00 0.00 67 1013.6
20260505075642 17 206 0.0 6.4 0.00 0.00 0.00 66 1013.8
20260505075139 17 57 1.6 3.2 0.00 0.00 0.00 67 1013.7
20260505074636 16 87 1.6 3.2 0.00 0.00 0.00 68 1013.7
20260505074133 16 3 3.2 6.4 0.00 0.00 0.00 68 1013.7
20260505073631 16 21 0.0 1.6 0.00 0.00 0.00 68 1013.5
20260505073129 17 76 3.2 4.8 0.00 0.00 0.00 68 1013.6
20260505072624 17 23 1.6 3.2 0.00 0.00 0.00 67 1013.4
20260505072121 17 81 6.4 6.4 0.00 0.00 0.00 67 1013.4
20260505071617 17 37 0.0 1.6 0.00 0.00 0.00 67 1013.3
20260505071115 17 332 3.2 3.2 0.00 0.00 0.00 66 1013.5
20260505070612 17 332 3.2 3.2 0.00 0.00 0.00 66 1013.1
20260505070108 17 198 4.8 4.8 0.00 0.00 0.00 66 1013.1
20260505065604 17 312 1.6 9.7 0.00 0.00 0.00 66 1013.3
20260505065101 -17 0.0 0.0 0.00 0.00 0.00 1013.8
20260505064557 -17 0.0 0.0 0.00 0.00 0.00 1013.3
20260505064056 -17 0.0 0.0 0.00 0.00 0.00 1013.1
20260505063553 -17 0.0 0.0 0.00 0.00 0.00 1013.5
20260505063049 -17 0.0 0.0 0.00 0.00 0.00 1013.4
20260505062545 17 74 6.4 9.7 0.00 0.00 0.00 64 1013.3
20260505062043 17 74 6.4 9.7 0.00 0.00 0.00 64 1013.2
20260505061540 -17 0.0 0.0 0.00 0.00 0.00 1013.3
20260505061038 17 15 1.6 3.2 0.00 0.00 0.00 63 1013.2
20260505060535 17 15 1.6 3.2 0.00 0.00 0.00 63 1013.4
20260505060032 17 315 4.8 6.4 0.00 0.00 0.00 63 1013.2
20260505055527 17 314 4.8 4.8 0.00 0.00 0.00 62 1013.4
20260505055024 17 342 3.2 6.4 0.00 0.00 0.00 62 1013.2
20260505054521 17 56 3.2 4.8 0.00 0.00 0.00 61 1013.3
20260505054020 17 56 3.2 4.8 0.00 0.00 0.00 61 1013.4
20260505053516 17 51 3.2 4.8 0.00 0.00 0.00 60 1013.3
20260505053013 -17 0.0 0.0 0.00 0.00 0.00 1013.3
20260505052510 -17 0.0 0.0 0.00 0.00 0.00 1013.4
20260505052008 -17 0.0 0.0 0.00 0.00 0.00 1013.2
20260505051504 -17 0.0 0.0 0.00 0.00 0.00 1013.1
20260505051003 -17 0.0 0.0 0.00 0.00 0.00 1013.1
20260505050500 16 66 1.6 1.6 0.00 0.00 0.00 60 1013.2
20260505041428 -17 0.0 0.0 0.00 0.00 0.00 1012.9
20260505040925 -17 0.0 0.0 0.00 0.00 0.00 1013.3
20260505040422 -17 0.0 0.0 0.00 0.00 0.00 1012.9
20260505035919 -17 0.0 0.0 0.00 0.00 0.00 1013.3
20260505035415 -17 0.0 0.0 0.00 0.00 0.00 1013.0
20260505034913 -17 0.0 0.0 0.00 0.00 0.00 1013.1
20260505034409 -17 0.0 0.0 0.00 0.00 0.00 1012.8
20260505033906 -17 0.0 0.0 0.00 0.00 0.00 1013.0
20260505033403 -17 0.0 0.0 0.00 0.00 0.00 1012.9
20260505032901 -17 0.0 0.0 0.00 0.00 0.00 1012.8
20260505032357 -17 0.0 0.0 0.00 0.00 0.00 1013.1
20260505031854 -17 0.0 0.0 0.00 0.00 0.00 1012.9
20260505031351 -17 0.0 0.0 0.00 0.00 0.00 1013.0
20260505030848 -17 0.0 0.0 0.00 0.00 0.00 1013.1
20260505030344 -17 0.0 0.0 0.00 0.00 0.00 1012.8
20260505025839 -17 0.0 0.0 0.00 0.00 0.00 1012.8
20260505025337 -17 0.0 0.0 0.00 0.00 0.00 1012.8
20260505024836 -17 0.0 0.0 0.00 0.00 0.00 1012.6
20260505024333 -17 0.0 0.0 0.00 0.00 0.00 1013.1
20260505023830 -17 0.0 0.0 0.00 0.00 0.00 1013.0
20260505023327 -17 0.0 0.0 0.00 0.00 0.00 1013.0
20260505022824 -17 0.0 0.0 0.00 0.00 0.00 1012.9
20260505022321 -17 0.0 0.0 0.00 0.00 0.00 1012.8
20260505021818 -17 0.0 0.0 0.00 0.00 0.00 1012.8
20260505021315 -17 0.0 0.0 0.00 0.00 0.00 1012.9
20260505020811 -17 0.0 0.0 0.00 0.00 0.00 1012.9
20260505020307 -17 0.0 0.0 0.00 0.00 0.00 1012.8
20260505015804 -17 0.0 0.0 0.00 0.00 0.00 1012.8
20260505015301 -17 0.0 0.0 0.00 0.00 0.00 1012.8
20260505014758 -17 0.0 0.0 0.00 0.00 0.00 1013.1
20260505014255 -17 0.0 0.0 0.00 0.00 0.00 1012.8
20260505013751 -17 0.0 0.0 0.00 0.00 0.00 1012.8
20260505013249 -17 0.0 0.0 0.00 0.00 0.00 1012.8
20260505012747 -17 0.0 0.0 0.00 0.00 0.00 1012.6
20260505012244 -17 0.0 0.0 0.00 0.00 0.00 1012.7
20260505011739 -17 0.0 0.0 0.00 0.00 0.00 1012.6
20260505011237 -17 0.0 0.0 0.00 0.00 0.00 1012.6
20260505010732 -17 0.0 0.0 0.00 0.00 0.00 1012.4
20260505010229 -17 0.0 0.0 0.00 0.00 0.00 1012.5
20260505005725 -17 0.0 0.0 0.00 0.00 0.00 1012.6
20260505005222 -17 0.0 0.0 0.00 0.00 0.00 1012.2
20260505004720 -17 0.0 0.0 0.00 0.00 0.00 1012.4
20260505004216 -17 0.0 0.0 0.00 0.00 0.00 1012.3
20260505003713 -17 0.0 0.0 0.00 0.00 0.00 1012.3
20260505003211 -17 0.0 0.0 0.00 0.00 0.00 1012.3
20260505002707 -17 0.0 0.0 0.00 0.00 0.00 1012.4